Location: Hawaiian Village Mobile Home Park
(32.8359°N, 116.9792°W)
Time: 17:32:52
(UTC+00:00)

Lacrosse 5 rocket - Pass Details

Date: 01 August 2021
Orbit: 464 x 629 km, 57.0° (Epoch: 22 September)

Event Time Altitude Azimuth Distance (km) Brightness Sun altitude
Rises 12:26:02 0° 185° (S) 2,875 4.7 -7.7°
Reaches altitude 10° 12:28:48 10° 169° (S) 1,956 4.0 -7.2°
Maximum altitude 12:32:08 21° 121° (ESE) 1,359 3.8 -6.6°
Drops below altitude 10° 12:35:24 10° 72° (ENE) 1,903 5.9 -5.9°
Sets 12:38:02 0° 56° (NE) 2,774 7.3 -5.4°
